GFSFLT2_sfc_30mbdewp_000.txt.gz
Dewpoint
62 62 63 62 63 63 64 65 66 65 65 65 65 65 64 63 62 61 60 60 60 60 60 61 62 61 62 62 63 64 63 63
61 61 60 60 61 62 63 64 65 65 63 62 62 63 62 61 59 59 59 60 59 59 58 58 58 57 57 57 58 60 60 60
60 60 59 57 58 61 62 63 64 65 63 62 61 59 58 58 58 58 59 59 58 58 58 57 55 54 56 56 55 56 58 58
60 60 59 57 56 59 60 61 63 64 63 61 59 58 57 57 58 57 58 57 57 57 55 54 50 50 52 54 53 54 55 56
61 61 61 59 58 59 59 59 60 62 63 62 60 59 57 58 56 57 56 56 54 55 55 55 54 53 54 54 54 55 55 57
62 62 62 61 60 60 59 59 59 60 60 60 59 58 56 56 56 56 57 56 55 55 55 55 55 54 54 53 53 54 55 57
57 58 59 58 58 58 58 59 59 60 60 59 58 57 55 55 56 56 57 56 56 55 52 49 47 48 50 51 51 52 53 54
54 56 57 55 52 53 53 56 57 58 57 57 56 57 56 55 55 56 55 55 54 49 45 43 43 45 45 43 42 44 49 48
51 54 55 54 51 50 49 50 50 51 52 53 52 54 56 56 55 56 55 53 48 47 45 42 40 39 37 39 40 41 45 41
50 52 53 53 52 51 51 49 48 46 47 49 50 53 53 51 51 52 53 50 47 47 38 34 35 36 35 35 36 35 35 34
47 48 50 49 49 50 50 49 48 46 45 47 49 50 50 46 45 46 47 44 40 43 35 35 34 33 33 33 34 33 34 34
42 43 47 45 42 41 40 38 38 41 41 42 46 48 48 47 45 44 43 40 38 37 34 36 35 33 34 33 33 33 34 33
35 37 37 36 34 34 34 33 33 34 36 38 40 44 47 47 45 44 44 41 39 37 36 34 34 36 33 31 31 33 33 33
30 29 30 30 32 32 33 32 32 32 33 34 35 37 41 45 45 42 42 42 40 38 36 34 34 35 31 32 25 27 29 34
30 30 30 31 33 33 33 33 33 33 32 32 33 35 37 42 43 43 41 41 40 39 37 35 33 35 35 28 29 25 30 29
31 33 34 35 35 35 35 34 34 34 35 35 36 37 36 37 42 44 41 40 40 40 38 37 34 33 35 37 32 30 17 16
38 37 36 36 36 36 35 32 35 37 37 37 38 38 38 37 38 39 41 39 39 38 37 36 32 31 24 28 26 31 30 21
36 35 35 36 36 33 32 32 33 33 33 35 37 38 36 35 38 38 37 35 33 31 30 28 29 30 30 28 27 23 21 23
36 36 36 37 35 31 32 33 33 32 32 34 35 35 32 33 33 34 35 36 37 37 36 36 36 36 35 34 33 33 33 32
37 37 37 38 35 30 33 34 34 33 33 33 33 33 33 36 37 37 36 38 38 38 37 38 38 38 36 36 35 34 33 32

GFSFLT2_sfc_30mbdewp_003.txt.gz
Dewpoint
63 62 63 64 64 64 65 65 66 65 65 65 65 65 64 63 62 61 60 61 61 60 61 61 61 60 60 60 62 62 63 63
61 61 60 60 61 62 63 64 65 64 63 62 62 62 61 61 58 59 60 60 60 59 59 58 58 58 58 57 56 58 59 60
60 60 58 58 59 61 62 63 65 64 62 61 60 59 59 58 59 58 59 59 59 58 57 56 53 54 56 55 54 54 54 54
59 60 59 57 56 60 61 61 63 64 63 62 60 60 59 59 59 59 58 58 57 57 56 55 51 51 54 55 54 56 55 55
59 60 60 58 56 59 59 59 61 62 64 63 61 61 61 60 59 58 58 58 56 56 56 57 57 57 56 56 54 54 54 55
61 61 61 62 61 60 59 59 59 60 61 62 62 61 60 59 58 57 58 58 58 57 58 56 55 55 53 53 51 51 48 51
61 62 62 63 62 61 60 60 59 60 61 61 61 59 59 58 57 57 58 58 58 57 54 46 44 44 48 47 45 45 47 42
60 59 60 60 57 59 58 58 60 60 60 61 61 59 58 57 57 57 57 57 57 56 47 42 42 44 45 42 41 42 44 42
56 57 58 58 55 53 52 52 53 55 56 58 58 58 57 57 57 57 57 57 57 51 46 45 42 42 41 41 41 40 40 39
53 54 55 56 55 54 53 52 52 51 50 51 52 53 54 55 55 55 55 57 55 51 47 41 36 38 38 36 36 36 37 37
50 53 53 53 52 52 52 52 51 51 50 48 49 51 52 53 52 51 53 52 52 50 45 41 34 35 35 35 36 34 36 33
49 49 50 51 48 45 42 42 42 43 43 44 46 47 50 51 50 50 50 47 47 46 43 40 35 34 32 31 35 34 35 35
44 42 44 43 38 37 36 36 36 37 37 38 40 40 44 47 47 48 49 47 45 45 43 40 37 38 36 34 34 36 35 34
39 36 36 35 35 36 37 37 37 36 38 39 39 39 39 40 44 44 44 45 46 46 44 40 38 38 32 32 29 30 32 35
34 35 37 38 38 37 37 37 37 35 33 33 34 39 39 40 40 41 43 44 43 44 45 42 38 37 37 32 30 27 28 34
40 39 38 37 38 35 35 33 32 34 34 33 35 37 39 39 40 40 41 42 43 43 44 43 42 38 37 36 37 34 29 27
39 38 38 39 36 35 35 36 36 36 35 33 34 36 38 38 38 39 39 40 40 41 42 42 40 40 37 36 34 30 29 23
40 38 38 40 37 35 37 38 38 37 35 33 33 34 36 36 36 37 37 36 37 37 37 37 36 35 33 32 30 26 24 25
38 38 38 39 40 35 37 39 38 36 34 33 34 33 34 35 36 37 36 37 37 37 38 38 38 37 38 37 37 36 36 35
39 38 38 40 41 36 38 39 36 35 34 35 34 33 34 37 36 36 38 38 38 39 39 38 36 36 37 37 37 36 36 36

GFSFLT2_sfc_30mbdewp_006.txt.gz
Dewpoint
56 56 60 64 64 64 65 65 65 64 64 64 65 65 63 63 62 61 61 61 60 60 60 60 60 59 59 59 60 60 59 59
56 58 57 57 57 62 63 64 65 63 63 61 62 62 61 60 58 59 60 59 59 58 58 57 58 58 57 56 55 56 56 57
58 57 57 57 55 58 60 62 63 63 62 61 60 57 57 56 57 58 59 58 58 57 56 54 52 54 54 54 53 52 53 52
58 59 58 58 54 57 57 57 57 59 60 61 58 59 59 58 58 58 57 56 55 55 56 55 53 46 48 53 49 52 50 50
57 60 61 59 53 55 53 53 55 57 61 62 60 60 58 57 56 54 54 55 51 52 52 50 52 50 47 50 48 49 44 45
58 59 61 61 55 53 53 54 53 55 56 61 59 57 56 56 54 52 51 51 53 51 51 53 48 45 45 45 44 42 38 41
59 60 60 58 59 54 55 56 53 55 55 55 58 55 54 53 51 49 49 49 50 51 50 46 40 38 40 40 39 40 41 38
60 61 59 55 54 56 53 52 51 51 50 50 55 56 52 49 47 45 45 45 47 48 47 44 40 38 37 40 38 38 38 38
58 59 54 54 52 51 48 45 48 46 46 48 51 51 48 48 45 45 44 45 48 50 50 46 42 37 36 37 38 39 36 37
56 54 50 50 49 48 47 46 47 46 46 47 49 50 50 49 45 45 44 46 45 46 46 43 41 37 34 34 35 35 35 36
54 52 43 45 48 47 48 49 46 41 42 41 42 45 46 47 45 44 46 45 44 44 44 43 41 37 34 34 35 34 33 32
51 46 46 48 47 45 41 41 40 39 38 38 39 40 42 43 43 45 46 46 45 43 43 43 40 39 34 30 32 35 34 33
46 45 42 40 37 36 35 36 36 37 38 40 41 40 40 41 40 41 42 42 43 46 45 44 44 41 39 35 34 35 37 34
40 37 38 37 36 38 39 40 38 39 37 38 37 35 35 35 37 38 38 39 40 41 43 44 44 43 40 37 33 32 33 36
38 39 39 40 38 37 36 36 36 35 35 34 34 34 34 35 36 37 38 38 36 38 40 40 40 41 42 39 35 32 31 31
39 39 38 38 39 37 38 36 35 36 36 34 34 32 33 34 35 37 37 37 37 37 35 37 39 38 39 40 41 39 36 32
41 39 39 39 38 39 37 37 37 36 35 33 30 29 31 33 36 37 38 37 37 39 40 40 41 40 39 38 40 39 38 36
40 38 38 39 39 38 39 40 38 35 32 30 29 30 30 32 36 37 38 38 37 37 39 40 40 39 39 38 37 36 35 34
38 38 36 38 39 37 37 36 36 34 32 30 31 30 30 33 37 37 36 37 36 37 37 37 38 38 38 38 38 37 37 37
40 38 36 36 36 35 34 37 37 34 33 33 32 32 34 37 37 36 36 37 37 38 37 37 36 37 37 36 36 36 36 36

GFSFLT2_sfc_30mbdewp_009.txt.gz
Dewpoint
51 53 58 62 63 63 64 65 65 64 64 64 64 63 63 62 61 60 60 60 59 59 58 58 59 59 58 57 57 58 59 57
52 52 52 53 59 62 63 64 64 63 62 61 62 62 61 59 59 59 59 58 58 57 56 56 55 57 56 55 54 55 56 51
53 52 52 51 49 56 59 61 62 62 61 60 60 57 55 56 57 57 58 57 57 56 55 53 53 54 54 52 52 51 50 48
55 55 54 52 47 52 52 51 53 55 56 57 55 56 56 55 57 58 58 57 56 56 56 55 54 47 48 52 49 47 45 44
53 59 56 53 49 49 49 49 50 52 55 57 55 55 54 53 52 52 51 55 49 52 50 49 50 48 44 44 44 44 41 40
53 58 55 54 51 49 49 49 50 50 53 54 53 52 51 51 49 48 46 45 47 47 48 48 48 43 40 41 41 40 35 36
50 56 53 50 51 51 51 51 50 52 50 50 51 51 50 49 47 46 44 44 44 45 45 45 43 41 38 39 38 38 39 39
50 54 52 48 49 50 50 48 46 46 45 46 49 49 49 47 45 44 43 42 43 44 46 47 44 40 38 37 39 37 36 38
50 53 50 47 49 48 44 43 45 43 43 45 47 47 47 48 46 45 43 44 45 44 44 44 44 43 39 36 38 39 39 38
48 51 48 46 45 45 43 43 44 44 42 43 45 46 46 46 45 44 45 47 45 44 43 43 43 41 41 38 36 35 35 36
47 52 42 43 45 44 45 44 43 39 39 39 42 42 43 44 44 44 48 46 47 46 45 44 42 43 41 40 38 36 37 35
47 49 40 43 44 45 40 39 40 39 39 40 42 41 43 43 42 43 44 43 43 44 46 45 47 45 42 41 41 39 37 38
47 44 45 42 39 38 36 36 37 39 39 41 41 40 38 37 36 37 38 37 40 43 44 43 45 45 45 45 44 43 41 38
43 41 39 38 38 39 41 41 39 39 39 38 37 38 37 36 35 35 35 36 39 41 42 42 42 43 43 43 41 41 40 41
40 40 40 40 39 38 38 37 37 36 37 37 37 37 34 33 33 35 37 38 36 39 39 39 39 40 42 41 38 37 38 38
40 40 39 39 40 39 39 38 37 38 38 37 36 33 31 31 32 34 37 38 38 37 35 40 40 38 39 36 39 41 39 39
41 40 39 40 39 40 39 40 40 39 38 36 35 31 32 31 31 34 37 36 37 38 38 38 38 37 36 37 39 39 39 39
41 39 38 40 41 41 40 41 39 36 35 33 31 32 31 31 32 36 37 37 37 36 37 38 39 39 38 38 38 37 37 37
40 38 38 38 39 39 37 36 37 36 34 33 32 30 30 33 35 36 36 35 36 39 41 39 39 39 39 37 37 37 37 36
41 41 39 37 38 38 39 38 37 36 35 33 32 32 33 34 36 36 36 37 36 36 36 37 36 37 36 37 37 36 37 37

GFSFLT2_sfc_30mbdewp_012.txt.gz
Dewpoint
55 59 60 62 62 64 65 65 64 63 63 64 63 63 62 61 60 60 59 58 58 57 56 56 56 57 57 57 56 56 57 58
54 57 59 60 61 62 63 63 63 62 61 61 62 62 61 59 59 58 57 57 56 55 54 52 54 54 56 56 53 54 54 56
52 52 52 59 59 60 62 62 62 62 61 60 60 61 61 59 56 56 56 56 56 56 55 54 53 53 53 55 55 52 52 48
55 54 53 51 48 57 61 59 61 61 60 59 60 57 57 55 56 58 57 57 57 57 57 57 57 54 52 53 54 51 47 46
57 57 55 53 51 49 53 54 53 56 59 57 58 55 58 57 58 59 59 58 57 57 56 56 52 51 47 46 46 45 45 43
58 57 55 54 54 53 54 54 51 55 54 56 56 55 55 53 52 49 50 48 49 50 49 51 51 47 44 43 43 44 42 42
55 56 54 55 52 54 54 53 53 54 52 53 53 53 53 53 51 50 49 48 47 48 48 49 49 47 46 42 41 42 42 41
56 57 52 51 52 52 53 50 52 51 50 49 51 51 51 52 50 50 49 48 49 48 47 49 50 48 46 44 42 41 41 42
54 57 51 50 51 51 51 46 46 47 48 48 48 49 50 51 50 49 50 51 50 49 49 47 47 47 46 45 44 41 42 41
60 54 51 49 51 47 47 49 47 46 48 46 48 47 47 49 49 49 51 51 51 50 49 48 47 46 46 46 44 41 41 43
50 53 50 47 48 47 47 46 46 45 42 47 45 45 47 47 47 49 49 49 49 48 47 49 48 47 46 45 45 45 41 39
51 52 48 46 49 47 45 43 43 44 45 44 44 46 43 44 43 44 46 44 44 45 46 46 46 46 46 45 46 47 45 44
50 49 45 44 44 43 43 43 42 43 43 42 41 43 42 42 41 41 41 41 43 43 43 42 43 44 44 43 44 45 47 46
44 43 42 42 42 43 43 43 42 41 44 43 43 42 40 38 39 40 41 41 42 43 44 42 41 41 41 41 38 39 40 43
42 42 42 43 43 42 41 41 41 41 41 41 42 41 39 38 37 40 40 41 40 41 42 41 41 41 40 40 37 35 38 39
42 41 40 42 42 41 41 40 41 42 44 43 42 38 39 37 36 39 40 42 40 42 40 41 41 40 41 41 41 40 39 38
42 40 40 41 42 42 42 44 44 43 42 41 39 39 37 36 37 39 41 40 41 42 40 42 42 40 39 38 37 37 37 37
42 40 39 40 42 43 40 39 40 40 40 38 37 36 36 36 38 39 40 41 41 42 42 41 40 40 40 40 38 36 35 34
41 42 41 40 39 40 42 42 41 39 38 37 36 35 36 36 38 39 39 39 39 39 40 40 39 39 38 38 39 38 36 35
41 41 41 40 41 41 43 41 39 38 38 36 36 35 36 37 38 37 39 40 39 39 38 38 37 37 36 37 37 37 38 38

GFSFLT2_sfc_30mbdewp_015.txt.gz
Dewpoint
61 62 62 62 63 64 64 63 63 63 63 63 62 63 62 61 59 59 57 56 55 54 53 53 54 54 55 56 57 57 55 54
57 59 60 61 62 62 62 62 61 60 61 62 61 61 60 60 59 58 56 55 55 54 53 54 55 53 52 52 54 56 52 56
56 57 58 59 59 60 61 61 61 60 61 61 61 61 60 59 59 57 56 56 56 56 56 55 56 55 54 53 55 54 52 57
53 54 59 56 56 59 60 62 61 61 61 61 60 60 61 59 58 57 57 57 58 57 57 57 57 56 50 49 50 48 45 51
55 53 53 53 55 57 60 60 61 61 60 57 55 58 57 55 58 58 58 58 57 57 56 56 55 53 48 44 43 42 44 44
56 54 53 53 54 55 54 53 56 56 56 55 54 55 52 52 49 48 50 49 52 51 49 47 49 49 47 44 42 42 43 43
56 54 53 52 54 54 53 53 51 55 52 51 52 54 50 51 51 50 49 49 48 47 46 46 48 47 47 46 43 41 41 42
56 56 55 52 54 53 52 51 51 52 49 51 51 51 50 51 50 50 49 50 51 49 48 49 50 50 49 47 45 43 40 41
59 58 56 53 51 50 51 43 47 49 48 48 49 50 49 51 50 50 50 52 50 50 50 50 48 48 48 48 47 45 43 41
60 60 57 55 53 50 49 48 46 47 50 50 48 48 47 46 46 46 48 49 49 48 48 48 48 47 47 47 47 46 45 44
57 57 56 55 53 48 48 45 44 45 46 45 46 44 43 42 41 41 45 43 44 45 45 45 43 43 43 44 45 46 46 45
58 58 56 51 48 47 45 44 45 45 44 44 44 42 41 40 40 42 40 41 41 41 41 42 43 43 43 43 44 46 47 47
47 46 44 45 42 41 41 41 42 43 42 43 41 40 39 39 40 40 42 41 41 41 42 41 41 41 41 41 40 41 41 42
43 42 42 43 43 44 43 43 43 42 42 44 44 42 40 38 38 40 40 42 41 40 39 41 42 42 39 39 37 37 38 40
41 40 41 42 42 41 41 41 41 43 44 42 42 39 37 37 38 39 40 41 39 39 41 41 40 41 41 40 38 37 36 39
41 41 41 41 41 42 41 44 43 43 42 42 39 38 36 38 38 39 40 40 39 42 43 42 41 40 40 39 39 37 33 32
41 41 41 42 42 42 43 39 40 42 41 38 37 36 37 37 37 38 39 41 41 41 41 40 40 39 40 40 38 36 36 34
41 41 41 42 43 41 40 41 40 39 38 36 35 37 37 36 39 39 40 40 40 41 41 40 39 39 38 38 37 37 36 36
42 42 41 42 42 43 41 40 39 38 35 35 34 35 35 37 38 39 38 39 39 38 38 38 38 37 37 37 37 36 37 36
41 41 41 41 41 41 40 39 39 37 34 34 34 37 36 36 36 37 38 38 38 38 37 37 37 37 36 36 37 37 38 38

GFSFLT2_sfc_30mbdewp_021.txt.gz
Dewpoint
66 66 66 65 64 64 64 64 64 63 64 64 63 62 61 60 58 57 56 55 54 55 56 55 56 56 56 54 54 52 48 59
62 63 63 62 63 62 62 62 62 62 63 62 61 61 60 60 59 58 57 55 56 56 57 57 57 57 56 52 52 48 45 50
60 60 61 61 61 61 61 61 61 62 61 61 60 60 60 59 60 58 58 57 57 58 59 59 59 57 55 53 46 45 43 44
58 59 59 59 59 60 60 61 61 61 60 61 60 60 60 59 59 60 60 59 59 59 58 58 56 55 54 51 45 43 42 43
57 57 57 57 57 59 59 60 60 60 60 60 60 60 59 60 58 56 53 51 52 51 50 49 49 50 51 49 46 45 42 42
55 56 55 55 57 58 58 59 60 60 60 59 57 54 53 51 50 51 50 51 50 49 49 49 49 49 49 49 49 47 45 43
55 57 56 54 55 57 57 58 59 59 58 56 55 51 50 51 50 49 48 49 49 47 47 47 45 45 44 45 45 46 47 45
55 56 55 54 54 56 56 57 57 57 54 53 54 51 51 49 46 44 44 46 45 46 45 43 42 43 42 44 43 45 46 46
55 55 55 54 53 53 53 53 55 54 51 51 52 51 48 45 41 41 44 44 44 43 42 41 40 41 40 41 43 43 42 44
59 57 56 54 53 52 48 49 50 50 51 49 47 45 43 41 41 42 43 43 42 41 41 39 39 39 40 41 41 42 43 43
58 58 57 57 54 50 47 47 47 47 45 44 43 42 41 41 42 42 42 42 41 41 39 40 37 37 41 40 41 40 42 44
58 58 56 51 47 46 46 45 44 44 43 42 41 40 40 39 39 40 40 38 38 38 38 39 39 40 41 40 39 40 41 39
55 55 51 45 45 43 43 43 44 45 43 40 39 39 38 38 38 38 39 38 39 40 40 40 41 42 40 39 39 39 37 37
43 43 43 43 43 46 47 47 46 44 39 38 38 38 38 37 37 38 39 39 40 40 41 40 41 41 40 39 35 34 38 36
41 41 42 43 44 44 44 44 45 42 39 37 38 38 38 39 39 39 40 41 40 41 40 39 38 39 40 38 34 33 33 35
39 40 41 42 42 41 41 40 41 42 39 37 38 38 38 39 39 39 40 39 39 41 40 39 38 37 38 39 37 36 31 29
41 41 42 42 42 42 43 41 41 39 37 36 37 38 38 38 37 37 36 37 37 37 38 37 38 37 36 36 36 35 34 33
42 43 43 43 43 42 41 40 38 36 35 35 35 38 37 36 37 37 37 37 36 36 37 36 36 36 35 35 36 34 34 34
41 41 42 41 41 39 39 38 37 36 35 35 36 37 36 33 37 37 37 37 36 37 36 36 36 35 34 34 35 34 35 34
40 39 38 40 39 38 38 38 37 36 36 36 35 36 34 34 35 37 37 37 36 37 37 35 35 34 33 33 33 33 34 35

GFSFLT2_sfc_30mbdewp_024.txt.gz
Dewpoint
67 68 67 67 66 66 65 64 64 64 64 63 63 61 60 59 58 57 56 56 57 58 58 59 59 58 57 55 50 50 44 52
65 66 65 64 64 63 63 63 63 62 63 62 61 60 60 60 59 58 58 58 58 59 59 59 59 58 57 56 49 45 42 44
62 62 62 61 61 62 63 62 62 61 62 61 60 59 59 59 60 60 60 60 60 60 59 57 54 53 54 55 49 45 42 43
59 60 59 59 60 61 60 61 61 61 61 61 60 59 59 59 60 59 57 53 55 54 52 50 49 50 51 50 48 47 45 43
57 58 58 58 58 59 59 60 60 60 60 59 60 59 59 59 54 51 50 51 49 49 48 49 48 48 48 48 48 48 47 46
56 57 56 57 57 58 58 59 60 60 60 60 59 56 54 50 50 50 50 49 48 48 47 46 44 44 44 44 44 45 46 46
54 56 55 55 56 58 58 59 59 59 59 57 55 52 51 50 49 47 47 46 46 45 43 42 41 41 40 40 43 45 45 44
55 56 56 54 55 56 56 57 58 58 55 54 53 51 50 47 43 44 43 44 44 43 41 40 39 39 37 39 41 42 42 43
55 56 55 55 54 55 56 54 56 53 52 52 51 49 43 41 42 42 43 43 41 41 40 39 37 38 37 39 41 42 41 43
58 58 57 56 54 53 50 50 51 50 48 46 44 43 42 42 41 41 42 41 40 39 38 38 37 37 39 41 40 41 41 43
57 58 56 57 57 51 48 47 46 44 43 42 41 41 40 39 40 41 41 39 38 38 37 39 37 40 41 40 39 39 41 40
58 58 57 56 49 48 46 44 44 44 42 42 39 40 40 40 39 39 39 38 39 40 39 40 40 41 41 39 39 40 40 38
57 58 56 46 46 44 43 42 45 45 40 40 40 39 38 37 38 38 40 39 40 41 40 40 40 41 39 36 38 39 37 36
54 54 50 45 46 47 47 48 46 41 39 39 38 38 38 38 37 38 39 38 38 39 39 38 39 40 37 37 32 33 36 33
43 44 43 45 47 47 45 45 43 39 37 37 38 38 37 37 38 39 39 39 37 40 39 38 37 38 39 36 31 31 32 32
41 42 42 43 42 41 42 42 42 41 38 37 37 37 38 38 38 38 37 37 37 38 39 38 37 36 37 37 36 35 30 27
41 42 42 42 43 43 42 41 39 37 36 36 36 37 38 38 37 36 36 36 36 36 36 36 37 35 34 34 35 35 35 31
42 42 43 43 42 41 40 39 37 36 36 36 37 37 39 36 37 36 37 36 35 35 36 35 35 35 34 33 34 33 32 32
42 42 41 41 40 39 39 39 38 37 36 36 35 36 37 34 36 37 36 36 36 36 36 35 34 34 33 32 33 33 33 33
39 38 39 39 39 38 38 38 37 37 36 36 36 36 36 34 34 37 37 36 36 36 36 35 33 32 31 31 31 29 25 26

GFSFLT2_sfc_30mbdewp_027.txt.gz
Dewpoint
67 66 67 67 67 66 65 64 64 64 64 63 61 60 59 59 59 59 59 60 60 60 60 59 59 58 58 55 50 48 44 43
66 67 66 66 64 65 64 63 63 63 63 62 60 60 60 60 58 60 61 61 61 60 57 53 53 54 56 55 50 48 46 44
66 66 65 64 63 62 62 63 62 62 62 61 60 59 59 59 60 60 58 58 58 56 54 53 51 51 52 51 50 49 49 47
63 63 62 61 59 61 61 61 60 61 61 61 60 61 60 60 58 55 54 54 54 53 51 50 47 46 46 47 46 47 47 48
59 60 60 59 58 60 59 60 60 60 61 61 61 61 61 59 53 52 52 51 49 48 46 44 45 44 43 43 43 43 44 44
57 58 59 59 58 58 59 59 60 60 61 61 61 59 55 53 52 50 49 47 47 46 44 44 42 40 39 38 41 40 39 39
56 57 57 57 58 59 59 60 60 61 60 59 56 54 53 51 48 46 46 46 45 43 42 40 39 38 37 38 37 39 40 39
56 57 56 56 56 58 59 60 60 59 57 56 55 53 51 46 46 44 44 43 43 42 41 39 38 37 35 38 38 39 40 42
57 57 57 56 56 57 54 55 56 56 56 55 53 48 46 46 45 44 44 44 43 41 39 38 36 35 35 38 37 39 39 42
58 57 57 58 58 55 53 53 55 53 51 48 46 46 46 45 44 43 43 41 40 38 37 36 36 38 37 35 37 36 41 41
58 59 59 58 56 54 51 50 47 47 45 44 45 45 44 43 43 41 40 39 40 39 38 39 36 36 32 34 32 33 40 38
58 59 58 55 52 50 48 48 46 45 45 46 45 42 42 40 40 41 39 38 39 38 37 35 37 37 32 32 31 36 39 37
58 57 57 53 50 47 46 46 48 47 42 42 40 40 40 40 39 39 39 38 38 38 35 34 31 37 31 28 29 40 39 36
57 56 51 49 47 47 48 48 46 41 40 40 40 40 39 38 39 39 39 35 37 37 38 33 34 38 33 29 22 23 33 31
56 53 47 46 48 48 47 44 41 38 38 38 39 39 38 40 40 39 38 37 35 37 38 37 32 34 38 31 26 23 28 27
47 49 46 47 46 45 45 43 43 43 40 38 38 39 39 39 39 39 38 37 35 34 35 36 34 29 30 32 31 30 24 22
43 44 43 44 45 45 44 43 41 39 38 39 39 39 39 40 39 38 37 35 35 34 34 33 33 31 29 28 26 26 26 25
45 44 44 44 43 44 43 41 40 38 38 38 39 39 40 40 38 38 38 36 35 34 36 36 33 33 30 28 23 23 22 22
44 43 41 42 42 42 41 41 41 39 39 38 38 38 38 39 38 38 37 37 36 36 36 35 34 29 28 25 28 27 27 22
41 41 40 40 40 40 41 40 39 39 39 39 39 38 38 38 37 37 37 37 36 36 36 34 35 30 28 26 27 25 26 24

GFSFLT2_sfc_30mbdewp_030.txt.gz
Dewpoint
65 64 66 68 67 66 65 65 65 64 64 62 61 60 60 60 61 61 61 61 61 59 57 57 57 57 56 53 50 48 43 41
64 62 62 62 62 64 64 64 64 63 63 61 60 59 59 58 60 61 60 61 59 56 54 53 52 53 53 52 50 49 43 42
63 60 60 59 57 61 62 63 63 62 61 60 58 55 55 55 59 57 58 58 57 55 52 48 47 46 46 46 47 42 42 42
62 60 60 58 54 56 56 55 57 58 58 58 57 59 58 57 55 55 54 53 51 49 46 43 42 41 40 40 40 42 40 41
60 60 58 54 53 54 54 57 58 59 60 60 61 60 59 55 51 51 51 50 46 44 42 42 44 41 39 38 38 36 35 35
54 56 57 56 53 54 57 57 59 59 60 62 60 59 57 52 50 50 48 46 45 43 42 43 41 40 39 38 37 37 35 34
52 54 55 56 57 58 59 59 60 61 61 60 58 55 55 51 49 46 45 44 43 43 42 40 39 38 38 38 37 37 37 36
54 53 55 56 57 58 60 60 60 61 60 60 58 55 53 50 47 45 44 44 43 41 41 40 39 38 37 38 39 38 38 37
55 56 56 56 58 58 56 55 57 59 59 58 57 53 50 48 46 45 45 43 41 40 39 39 39 38 37 36 35 35 34 36
57 58 58 58 57 57 58 57 57 57 56 54 50 48 48 47 46 44 42 40 40 40 40 40 37 36 34 30 30 29 28 36
57 58 58 57 57 57 57 55 53 53 49 48 48 47 46 44 42 42 41 40 41 39 36 33 32 32 31 25 26 26 22 30
58 58 58 57 56 56 53 52 49 46 45 47 45 44 44 42 42 43 40 38 35 35 34 32 30 30 29 24 27 26 27 33
58 58 58 56 55 51 48 47 46 47 44 44 43 42 41 42 40 39 37 36 36 35 33 30 29 31 32 25 24 26 35 34
58 57 57 56 53 50 47 46 46 44 42 43 42 41 41 40 39 37 35 33 35 34 33 30 27 29 32 30 21 21 22 29
56 56 55 52 49 49 48 48 44 41 41 40 41 41 39 40 38 35 34 33 31 34 33 31 29 28 29 29 26 21 23 23
55 52 48 48 49 46 46 42 42 44 42 41 40 40 38 36 35 37 37 35 35 33 30 33 30 28 26 26 28 27 23 21
53 50 46 46 46 45 45 44 43 41 40 39 39 38 39 37 37 38 38 37 35 34 33 33 30 28 26 25 24 22 20 19
48 45 44 45 45 46 44 43 40 37 36 33 31 32 34 35 39 39 39 37 36 34 34 33 31 29 26 24 22 20 20 19
45 43 43 44 44 41 39 37 35 31 32 31 33 32 32 31 36 38 38 37 37 35 33 33 31 29 26 24 24 23 21 20
43 42 41 41 39 37 36 35 34 33 35 36 31 29 30 34 37 35 34 35 34 33 33 32 32 30 27 26 23 22 21 21

GFSFLT2_sfc_30mbdewp_033.txt.gz
Dewpoint
64 64 67 67 66 65 65 65 65 64 63 62 61 61 61 61 61 61 61 61 58 57 57 57 56 53 50 48 50 50 47 42
64 64 61 63 62 64 64 64 64 63 61 60 59 58 57 59 59 58 60 59 57 56 51 50 52 47 43 42 44 47 42 40
60 57 58 57 58 61 62 63 63 61 59 59 58 53 55 56 56 58 58 57 54 50 46 43 43 46 41 40 44 41 40 39
56 56 56 54 50 54 53 56 55 56 56 56 56 56 58 54 53 55 53 51 48 44 42 43 44 42 41 41 40 41 37 36
55 57 56 49 51 51 52 56 56 56 58 59 60 56 57 56 51 51 51 51 48 45 44 43 44 43 42 42 41 40 38 38
54 55 53 51 50 51 53 55 57 58 59 60 58 58 56 53 48 48 49 46 47 44 44 44 43 42 41 41 41 40 38 38
50 52 53 54 53 55 56 58 60 61 61 60 56 56 57 53 50 47 47 45 45 45 44 43 43 41 41 40 40 40 39 38
50 51 53 56 56 58 59 59 59 59 60 61 60 58 58 52 50 47 46 47 46 43 43 42 42 41 40 39 38 35 34 35
51 54 56 57 59 56 55 55 55 57 59 60 59 58 54 51 51 49 46 44 43 42 42 42 41 38 36 34 32 28 29 27
54 54 56 58 55 53 55 59 58 58 58 57 54 53 51 48 49 46 44 43 43 43 40 38 36 35 33 33 27 25 27 27
55 56 58 58 58 58 57 57 56 56 53 52 51 48 48 46 44 44 44 43 42 40 38 36 34 32 27 27 29 25 27 26
56 58 58 57 57 57 56 55 53 51 48 47 47 45 46 45 45 45 43 40 39 39 38 34 30 27 27 29 31 27 26 30
57 58 58 57 55 53 52 51 48 48 46 46 46 45 44 44 42 41 41 37 39 38 34 31 29 29 27 27 28 30 28 29
57 58 58 55 54 52 50 48 47 46 45 45 44 43 43 41 42 39 38 36 33 32 34 33 30 29 28 26 25 23 23 26
57 57 57 54 51 49 48 48 47 44 44 43 43 43 41 40 39 38 36 33 30 33 33 32 29 29 28 26 23 22 23 23
56 55 53 51 48 46 45 42 41 42 42 42 42 41 40 38 36 36 36 35 34 33 31 32 31 28 27 25 25 24 22 19
52 51 48 47 47 46 46 43 45 44 43 43 42 41 40 36 36 37 36 35 34 34 34 33 31 29 27 24 23 22 21 21
51 46 45 46 46 46 45 45 43 40 38 35 31 30 30 32 33 34 35 34 34 33 33 32 31 32 32 28 26 23 23 23
49 44 44 45 46 45 45 42 38 34 32 30 32 30 29 28 31 33 32 32 31 31 35 34 33 33 33 32 26 27 25 23
43 43 43 44 44 40 37 33 32 31 33 32 28 28 29 30 29 29 30 30 29 30 32 34 33 34 34 31 28 29 26 24

GFSFLT2_sfc_30mbdewp_036.txt.gz
Dewpoint
65 66 67 66 65 65 65 65 64 63 62 62 62 61 61 61 61 61 60 58 57 55 54 54 53 48 42 42 45 48 47 49
64 65 65 63 63 64 64 63 62 60 59 59 58 58 59 59 57 60 59 57 54 48 46 46 47 46 42 42 45 43 42 42
63 62 62 62 63 63 63 63 60 59 58 59 58 56 58 57 56 58 57 54 48 43 41 43 46 45 45 45 44 43 43 41
60 62 60 58 55 60 60 60 58 57 57 57 59 59 56 55 53 54 52 49 47 42 42 44 46 45 44 44 44 44 42 41
59 58 58 53 53 56 57 58 59 59 59 60 60 60 57 55 53 52 53 52 52 47 48 47 47 47 45 46 45 43 43 41
57 56 55 53 54 54 57 59 59 61 60 60 59 60 58 55 55 54 51 51 48 50 49 47 45 45 45 45 45 44 43 41
55 55 55 54 54 60 60 60 62 61 61 61 61 60 59 56 53 52 51 51 48 45 45 44 46 45 45 43 41 39 37 38
54 55 56 56 60 60 60 61 61 60 60 61 60 58 58 57 52 50 49 46 46 45 46 47 45 43 40 39 39 36 32 36
52 55 57 61 60 58 57 56 57 59 60 60 59 57 54 53 51 49 46 46 47 47 45 43 41 40 38 36 36 31 30 34
54 56 60 58 56 55 57 59 58 58 59 57 54 52 51 51 48 48 47 47 46 45 42 41 39 38 35 33 34 33 32 32
55 59 59 57 57 58 59 58 57 56 54 53 51 50 49 48 47 48 48 46 44 42 42 40 36 34 30 28 33 33 34 31
56 59 60 59 59 58 57 55 55 54 52 50 48 47 48 48 47 47 46 43 42 42 41 38 35 34 32 31 32 34 32 34
58 59 59 58 57 54 53 53 51 50 49 48 48 48 46 45 46 45 43 42 40 40 38 37 36 36 32 31 31 31 28 31
59 58 58 57 56 54 54 51 50 49 49 48 47 46 45 45 43 42 41 39 37 38 38 37 35 35 32 32 28 28 28 28
59 58 58 57 55 53 51 50 49 46 47 46 46 45 44 41 41 39 39 38 37 38 37 36 34 34 35 30 27 26 27 27
59 58 57 57 53 49 48 48 46 45 46 46 45 43 42 40 38 38 39 39 39 39 36 38 35 34 33 32 31 29 25 23
58 58 56 54 49 48 49 47 47 46 46 45 45 45 43 41 38 39 40 40 40 39 39 39 37 35 33 33 32 30 27 25
58 56 50 49 48 48 47 47 44 44 43 42 39 36 35 36 36 37 37 37 37 37 37 38 36 36 35 35 33 31 29 27
51 47 46 48 47 47 48 46 41 37 35 34 34 33 32 34 34 34 34 34 34 35 35 37 37 36 35 36 36 34 32 28
49 46 45 46 47 46 44 39 36 33 37 35 32 31 32 32 30 31 31 31 31 32 35 35 36 36 35 36 35 34 31 29

GFSFLT2_sfc_30mbdewp_042.txt.gz
Dewpoint
64 63 65 64 64 63 63 63 63 63 63 62 62 62 61 61 59 57 55 52 52 51 50 49 49 49 47 46 48 50 49 51
63 62 62 64 63 62 62 63 62 61 60 60 60 60 60 60 59 57 54 50 48 49 50 49 48 47 46 45 44 46 48 47
63 61 63 63 63 62 62 61 60 60 59 59 59 59 57 58 57 55 52 49 45 48 50 49 46 47 48 46 44 42 45 47
62 62 62 62 60 60 59 59 58 58 58 58 58 58 57 55 56 55 52 50 48 50 49 47 47 46 45 45 44 40 39 40
62 62 61 60 59 60 58 57 57 56 56 56 57 59 56 55 56 55 53 53 48 46 46 46 45 42 41 41 39 37 35 40
62 60 59 58 58 58 57 56 57 56 57 58 58 58 55 52 51 52 53 48 46 46 46 44 42 40 39 38 38 33 31 35
60 59 56 56 57 57 57 58 59 61 59 59 60 58 57 55 53 49 47 46 46 45 42 41 40 37 37 34 35 32 31 34
60 58 54 55 57 58 58 61 62 60 58 56 57 56 53 49 47 45 46 47 46 43 41 39 38 35 33 35 33 32 33 33
57 56 55 59 60 60 60 60 60 60 59 58 56 53 51 49 46 45 46 46 43 41 40 37 35 34 32 33 32 32 33 32
55 58 59 59 58 58 58 58 58 58 55 54 53 51 50 48 45 46 47 46 43 41 39 36 34 34 32 31 30 33 32 30
56 59 58 57 57 57 57 57 57 56 53 51 51 50 49 46 47 47 46 43 42 41 38 36 34 34 31 31 32 31 31 30
59 57 57 57 57 56 56 56 55 55 53 50 50 49 48 48 46 45 44 43 41 41 37 37 36 35 31 32 32 31 30 29
58 56 56 56 55 54 54 54 53 53 52 50 48 49 49 48 46 43 41 38 38 39 37 35 35 35 31 33 32 31 29 29
57 56 56 56 55 55 54 54 52 51 50 48 48 48 47 44 43 40 38 38 37 37 36 36 36 35 32 31 29 29 30 28
57 57 56 56 56 55 53 51 50 49 48 48 48 47 44 43 41 40 38 38 36 37 37 36 34 35 35 31 29 27 29 28
58 57 56 56 56 55 52 49 48 48 47 47 46 45 43 42 41 39 39 39 39 40 39 38 37 36 35 34 32 31 29 29
58 58 57 55 56 54 51 49 49 47 47 46 44 42 42 42 41 40 39 38 36 34 34 35 38 36 34 33 33 33 31 29
58 58 57 57 56 53 51 49 48 47 46 45 43 44 39 38 36 36 34 33 33 33 32 32 33 35 36 35 34 32 31 31
58 58 57 57 56 52 50 49 47 47 46 45 43 37 35 34 33 33 32 31 31 31 30 31 32 34 36 36 36 35 35 34
58 57 56 55 52 50 49 46 45 44 42 40 37 35 33 33 32 31 30 31 30 31 33 34 35 34 34 34 35 36 36 35

GFSFLT2_sfc_30mbdewp_045.txt.gz
Dewpoint
63 62 63 64 64 64 64 64 64 64 63 62 62 61 60 59 58 56 55 55 54 52 51 51 50 49 50 49 52 50 47 49
61 59 61 63 62 63 63 63 63 63 63 62 61 61 60 58 56 55 53 52 54 52 52 50 51 51 50 49 46 48 46 46
59 60 62 62 61 62 62 63 63 62 61 60 60 60 59 56 55 53 51 52 54 53 51 49 48 49 49 45 41 40 39 46
59 57 53 60 60 61 61 61 60 59 59 59 58 57 55 57 57 56 52 52 54 51 50 47 42 41 42 41 37 34 37 46
60 58 62 61 59 60 59 58 57 57 57 57 58 57 55 56 55 53 52 49 46 46 44 42 40 39 37 37 34 32 33 37
60 61 62 60 59 59 58 56 56 56 56 57 58 56 52 52 51 52 48 46 46 44 43 41 38 36 35 34 32 32 33 34
61 61 60 58 58 58 57 56 57 59 58 58 58 57 53 52 52 50 46 46 44 42 41 38 36 33 35 32 32 33 33 33
60 60 58 57 56 57 57 59 60 59 58 59 59 57 55 52 47 46 46 46 43 41 38 35 34 32 33 32 32 32 31 32
59 59 56 55 56 57 59 61 60 57 57 57 56 54 51 47 46 46 47 44 41 40 37 35 33 33 31 31 32 32 30 31
59 59 55 56 58 59 59 60 59 58 56 55 53 51 49 46 46 46 46 43 42 39 36 35 34 32 30 30 31 32 31 29
57 57 57 58 58 58 59 58 58 56 54 53 52 50 48 46 46 48 45 43 41 39 37 35 33 32 31 31 32 30 30 29
56 58 57 57 57 57 56 56 56 54 52 51 51 49 47 47 47 45 43 42 41 39 37 37 35 33 31 32 33 31 30 28
58 57 57 57 56 55 54 53 54 53 52 50 50 48 49 46 45 44 42 39 39 37 36 35 35 35 31 33 32 31 29 29
57 57 56 56 55 54 54 53 53 52 51 50 48 49 48 46 43 41 39 38 37 36 36 36 36 35 32 31 29 29 29 30
56 56 56 56 55 54 53 51 51 50 49 47 48 48 48 45 42 40 38 37 36 36 36 36 34 35 35 32 30 28 29 30
56 56 56 56 55 54 52 50 49 49 48 47 48 47 44 42 41 40 39 39 38 40 38 38 37 34 35 35 33 31 29 29
56 57 56 56 55 55 53 51 49 48 47 47 46 45 43 43 41 40 40 38 35 34 34 35 37 35 35 33 33 33 31 31
57 57 56 55 55 55 54 52 49 47 46 46 44 42 41 40 38 36 34 34 32 31 31 31 32 34 35 35 34 33 32 30
57 57 57 57 55 55 54 52 49 48 47 46 43 38 36 35 34 33 32 32 33 31 31 32 34 34 35 35 36 35 34 33
57 57 57 57 57 55 53 51 49 48 47 45 41 37 35 34 34 34 34 31 31 31 33 35 34 33 33 34 34 35 36 35

GFSFLT2_sfc_30mbdewp_048.txt.gz
Dewpoint
63 62 62 64 65 65 65 64 64 63 63 62 62 61 60 58 58 57 57 57 55 54 55 55 55 53 54 53 51 49 46 49
59 60 62 63 64 64 64 64 64 63 63 62 60 60 58 57 56 57 57 57 57 55 55 54 54 53 50 48 45 43 45 46
57 59 60 61 62 63 64 64 63 62 61 61 59 58 57 53 55 55 56 56 55 53 51 49 49 49 47 42 37 38 45 47
58 57 57 60 60 62 62 62 61 60 60 58 58 57 55 57 55 53 57 55 55 52 48 45 40 39 38 35 33 33 36 46
54 53 55 60 59 60 59 59 58 58 58 57 57 56 57 56 52 51 50 48 45 43 41 39 37 36 34 33 33 33 33 34
54 54 53 58 59 58 58 57 57 56 57 58 57 53 54 53 51 50 46 46 43 42 39 36 35 34 33 33 33 33 33 33
55 55 59 60 58 57 57 56 56 56 56 57 58 53 51 51 52 47 46 45 42 40 37 34 34 34 32 32 32 31 32 35
58 60 60 59 58 57 57 56 56 58 57 57 58 56 52 52 50 46 46 43 41 39 35 33 32 32 31 32 32 30 30 36
59 61 59 58 57 56 57 57 59 59 58 59 59 57 54 49 47 46 45 42 39 37 35 34 32 32 30 31 32 30 30 33
59 60 57 57 56 57 58 59 59 57 57 56 55 54 51 47 46 46 43 42 39 37 35 34 33 31 30 31 31 31 29 29
58 59 57 56 57 57 58 59 58 57 56 54 52 50 47 46 47 46 44 42 40 38 37 35 33 31 30 32 31 30 29 28
57 58 57 56 57 57 57 58 57 56 54 53 51 49 47 46 47 46 43 42 39 38 36 36 34 32 31 32 33 30 29 28
56 57 57 56 56 56 56 56 55 54 52 51 50 49 47 47 47 44 43 41 39 36 36 35 35 34 31 33 31 31 30 29
56 57 56 56 57 55 55 54 54 54 52 50 49 48 48 46 44 43 41 39 38 37 36 36 36 34 33 31 29 30 29 31
56 57 56 56 56 54 53 52 52 51 50 49 48 49 48 45 43 41 39 38 37 36 36 35 34 35 35 32 28 27 29 31
56 56 56 56 55 54 52 52 50 51 50 48 48 48 47 45 42 39 39 39 38 38 38 37 36 33 35 35 33 32 30 29
56 56 56 56 55 54 52 51 51 50 48 48 48 46 44 42 41 40 40 38 36 34 34 35 37 35 34 34 33 33 32 31
55 56 56 56 55 54 53 52 51 49 48 46 46 44 43 41 40 38 35 34 31 31 33 32 31 33 34 34 34 33 32 31
55 56 56 56 55 55 54 53 52 50 48 46 44 41 39 38 36 34 33 34 37 35 31 30 32 33 34 34 35 35 35 33
56 56 56 56 56 55 55 54 53 51 49 46 43 39 37 36 35 37 40 37 33 33 32 34 34 34 33 33 33 34 36 36

GFSFLT2_sfc_30mbdewp_054.txt.gz
Dewpoint
63 62 64 65 64 64 64 64 64 63 63 62 62 62 62 60 59 58 58 59 60 58 57 56 53 51 51 51 48 45 41 43
62 62 63 63 64 64 64 64 64 64 63 62 61 61 61 60 59 59 58 57 57 56 56 54 50 49 49 47 44 41 39 39
58 57 55 57 58 62 63 63 62 61 60 59 55 51 51 51 56 59 59 58 56 54 53 50 47 46 42 36 34 35 35 37
56 54 51 55 59 58 60 60 56 55 54 52 49 50 49 53 57 58 58 56 53 51 47 44 42 37 35 34 32 32 29 30
54 54 56 57 58 57 56 59 57 56 56 53 52 51 52 52 54 50 49 48 42 41 42 40 40 37 36 34 31 27 26 25
55 56 56 57 56 56 55 53 56 54 54 54 54 51 50 51 49 50 48 46 45 44 43 42 40 38 37 35 33 28 28 26
53 54 53 56 56 56 56 56 54 51 53 53 52 51 50 49 51 49 47 47 45 44 42 40 39 38 35 32 32 33 34 31
53 53 53 54 53 52 54 57 54 54 52 53 53 52 54 51 50 49 47 46 45 43 42 40 38 37 35 33 32 31 34 37
48 49 53 53 54 54 54 52 50 50 52 57 55 54 53 52 51 49 47 47 45 44 42 41 38 35 34 32 29 31 32 35
49 50 52 53 56 55 53 50 50 50 56 60 60 57 54 54 51 50 49 47 45 43 42 41 38 35 33 31 30 29 31 32
50 50 50 53 57 57 53 54 53 52 56 58 59 60 59 54 52 51 51 45 43 43 43 42 39 35 32 33 34 29 30 25
49 51 53 56 57 58 55 52 53 55 58 60 60 59 60 57 54 52 47 44 44 43 43 41 38 34 29 32 36 33 30 30
52 53 55 57 56 54 53 51 53 55 57 59 58 57 58 57 54 52 47 45 45 46 43 42 38 38 36 37 37 37 34 31
53 53 55 57 55 54 51 49 51 55 58 59 58 56 55 54 52 50 48 47 45 45 43 40 39 39 37 37 36 35 34 33
54 55 56 57 56 55 52 53 54 56 57 58 57 56 53 52 52 50 49 47 45 44 44 41 38 39 39 37 35 33 30 31
51 52 53 56 57 54 51 49 49 53 56 58 56 55 53 52 51 50 49 46 45 44 43 41 40 38 39 37 35 32 30 29
52 52 53 55 57 57 54 51 49 52 58 57 55 54 54 51 50 49 49 46 45 44 42 42 40 38 36 34 34 34 33 30
55 54 53 55 56 58 57 55 54 55 56 56 56 54 53 50 48 48 47 45 45 44 44 40 41 39 35 32 33 30 25 22
58 57 55 55 56 57 58 58 57 56 55 55 55 53 51 49 48 47 46 45 45 42 39 41 37 37 33 33 30 27 26 26
58 57 56 56 57 58 58 58 58 57 56 55 55 52 51 51 49 47 45 42 40 40 41 37 36 35 36 34 29 29 29 28

GFSFLT2_sfc_30mbdewp_057.txt.gz
Dewpoint
65 64 65 65 64 63 63 64 64 64 64 63 63 62 62 63 63 62 61 60 58 57 55 54 51 51 48 43 42 42 42 44
63 63 64 62 63 62 63 62 63 64 63 63 62 61 60 60 60 61 61 59 57 55 53 51 50 48 45 43 42 42 38 41
62 62 62 62 62 62 61 63 63 62 61 59 55 54 52 50 58 59 58 58 57 54 51 49 43 39 35 33 39 34 34 38
59 60 59 59 57 58 58 59 58 56 55 54 52 52 51 53 58 59 58 56 55 52 47 43 44 37 35 35 33 31 28 32
54 55 55 58 58 57 56 56 56 55 55 53 53 55 55 54 54 52 51 49 43 43 43 44 43 40 38 35 31 28 27 27
54 58 58 57 56 56 55 56 56 54 55 55 55 54 54 53 50 49 48 46 44 46 45 45 43 41 39 36 34 30 30 28
55 56 56 55 54 55 53 48 48 49 54 55 53 52 54 53 51 49 48 48 48 46 46 44 43 40 37 34 33 34 34 32
54 55 56 56 54 55 55 52 50 50 52 54 55 54 54 51 52 50 48 48 47 46 45 44 41 40 38 34 32 31 35 36
53 54 56 55 54 53 52 54 52 51 51 55 53 52 54 51 51 50 49 48 48 47 46 44 42 38 37 34 31 32 33 34
53 53 54 52 52 52 56 51 50 46 49 52 55 53 54 52 52 51 50 49 48 47 45 44 43 39 36 33 32 31 32 32
50 50 52 52 53 53 53 51 51 49 49 54 59 57 54 54 52 52 52 50 49 46 46 46 43 39 35 35 37 33 33 28
49 51 52 53 54 54 51 51 52 49 49 54 58 58 59 56 53 53 53 51 47 46 46 45 44 39 31 32 39 38 35 33
50 51 52 50 50 50 49 48 49 49 51 55 60 59 58 60 57 55 55 49 48 47 46 45 43 40 38 38 40 41 40 35
48 48 48 49 48 48 47 47 47 51 52 55 59 59 57 58 58 56 54 50 48 48 47 46 44 41 39 38 39 39 38 38
48 49 50 50 50 49 48 47 46 47 50 54 59 59 57 57 57 55 53 51 49 48 46 46 43 42 41 39 39 37 36 35
51 50 50 51 52 50 49 47 45 46 50 53 58 58 58 58 56 57 54 52 50 49 47 47 44 41 41 41 39 37 35 34
52 52 52 52 52 52 51 50 47 47 50 53 57 58 57 56 56 56 54 52 49 48 47 47 44 42 41 37 37 38 38 36
52 51 51 50 51 53 54 52 51 48 48 58 57 57 57 56 55 54 54 52 50 49 48 46 44 41 40 37 34 37 34 32
52 52 51 51 52 53 54 55 55 54 54 57 56 56 56 55 54 52 52 51 52 49 46 42 42 41 37 33 38 35 32 29
54 53 53 52 53 55 56 57 57 58 57 56 56 56 56 55 52 52 52 48 44 45 45 43 40 38 36 40 36 32 32 30

GFSFLT2_sfc_30mbdewp_060.txt.gz
Dewpoint
62 64 65 65 65 64 65 65 65 65 64 65 66 66 65 64 62 62 60 59 57 54 53 52 49 44 43 44 44 45 49 50
63 62 62 62 62 59 61 64 64 64 63 63 63 63 63 63 62 61 59 58 55 53 52 50 45 41 40 38 39 41 47 50
62 62 62 61 60 61 60 60 63 62 61 60 59 59 59 58 61 60 59 58 55 52 48 43 37 34 32 34 40 34 43 50
61 61 59 59 56 55 57 59 59 58 56 54 53 55 55 59 60 59 58 56 53 50 46 42 40 37 37 37 34 35 42 52
58 59 58 57 58 58 57 57 57 56 56 55 57 56 56 57 55 54 54 51 45 46 47 46 46 42 41 39 37 32 37 43
57 58 57 57 56 56 56 56 56 55 56 57 57 56 55 54 53 52 49 49 44 47 49 46 44 42 40 37 36 37 37 38
56 56 55 55 55 56 55 56 55 56 55 56 56 56 55 53 52 51 49 51 49 49 48 46 44 42 39 36 36 36 36 42
55 55 54 54 53 54 53 53 52 51 55 55 54 55 57 53 55 52 52 51 50 50 48 46 46 41 38 36 35 36 37 40
54 55 54 54 53 53 53 53 51 51 55 55 55 55 56 54 54 54 53 51 50 50 49 47 44 43 39 36 35 35 35 36
54 55 54 53 53 52 53 51 50 51 54 55 55 56 56 56 54 54 53 52 51 50 47 47 46 43 39 36 35 34 33 33
52 54 53 52 53 53 52 54 54 53 52 56 57 56 57 56 55 54 54 52 51 51 48 49 47 43 39 38 38 37 34 33
52 53 52 52 51 50 53 55 53 53 52 55 58 58 55 56 56 55 55 53 51 49 48 49 48 44 38 36 41 39 37 36
51 52 54 53 51 52 53 53 54 54 52 53 59 59 59 58 56 56 56 54 51 50 50 47 46 43 39 39 41 42 42 39
51 52 52 53 53 53 53 51 52 53 52 53 58 60 60 59 59 58 57 55 52 50 49 47 46 46 41 41 40 43 43 42
51 52 52 53 53 51 51 50 50 50 52 53 59 60 60 59 60 59 58 56 53 51 50 48 46 47 43 42 41 40 38 41
51 51 51 52 51 49 48 48 48 49 51 53 58 60 59 58 58 57 57 56 55 54 51 49 48 44 45 43 41 38 37 36
50 50 50 51 51 52 52 50 49 48 50 52 59 59 59 58 58 58 57 58 57 53 51 50 49 47 44 40 38 39 40 39
52 52 52 52 52 53 54 53 52 50 51 53 58 59 58 58 58 57 57 56 53 52 53 51 52 47 41 39 38 37 38 35
53 53 52 53 53 55 55 54 56 52 52 55 57 58 58 57 57 56 56 54 53 53 52 49 47 45 43 39 38 38 36 36
52 52 52 53 53 54 56 56 56 57 57 56 57 58 58 58 58 55 53 53 51 49 47 48 47 44 37 40 39 38 37 38

GFSFLT2_sfc_30mbdewp_063.txt.gz
Dewpoint
63 61 62 62 65 65 65 66 66 66 67 67 67 66 64 63 62 61 60 58 55 53 51 47 45 44 42 42 48 52 51 51
62 62 61 60 60 61 60 63 64 65 66 66 65 64 63 62 61 60 58 56 54 51 46 41 40 36 36 38 49 52 51 51
61 61 60 59 60 60 60 61 63 63 63 62 62 62 60 60 60 59 58 55 53 48 43 40 37 36 38 39 45 50 51 51
61 60 58 58 58 59 60 61 59 58 57 58 58 59 59 60 60 59 56 54 51 49 43 41 41 40 39 38 40 50 53 53
60 59 58 57 57 56 55 56 58 56 55 57 57 59 58 57 56 55 54 50 48 47 45 44 44 40 37 36 38 46 51 53
58 57 56 53 55 54 57 57 57 57 56 57 56 55 54 53 52 50 46 45 44 47 48 44 41 39 37 36 37 39 46 52
56 57 57 57 56 57 57 56 56 57 57 57 56 54 52 53 51 49 47 48 45 49 46 44 41 40 37 36 35 37 38 46
55 55 55 55 55 56 56 55 55 55 56 56 57 55 53 52 51 48 49 50 50 48 46 45 43 38 35 35 36 37 41 41
54 54 54 54 53 53 53 52 52 53 56 55 56 56 54 53 52 52 52 52 50 48 47 47 43 40 36 36 34 36 37 42
54 54 53 52 53 53 52 49 48 49 53 55 54 55 56 54 55 54 54 53 50 50 48 47 44 42 38 36 35 35 33 35
54 54 53 52 52 52 51 48 51 46 54 55 54 55 56 55 54 54 53 52 51 50 48 47 47 45 39 38 36 35 33 33
53 53 52 52 51 50 50 52 54 53 53 54 55 55 57 55 55 55 54 52 51 50 49 48 49 45 38 38 38 38 35 35
52 52 51 51 50 49 48 50 53 53 54 53 57 57 56 56 56 56 55 52 52 49 48 47 47 46 43 38 41 40 38 38
52 51 51 50 50 49 49 51 53 54 54 53 57 58 58 57 56 57 57 55 51 50 49 48 47 47 40 41 39 43 43 41
51 51 51 49 49 49 52 53 53 53 53 52 57 58 59 59 59 58 58 56 53 51 50 48 46 47 46 42 41 39 41 41
50 51 52 51 51 50 51 52 50 50 52 53 56 59 59 59 59 59 58 57 55 53 51 50 48 47 49 47 42 39 38 37
50 51 51 51 52 53 52 50 49 50 50 52 54 59 59 58 58 57 57 57 55 54 53 51 52 51 50 46 44 44 43 39
50 51 50 50 51 52 52 49 50 50 50 51 55 59 59 58 58 57 57 57 57 55 53 53 52 49 48 46 44 42 41 38
50 50 50 50 51 51 51 53 52 50 50 52 57 58 58 58 58 57 57 56 54 53 53 52 50 47 46 45 43 41 40 41
50 50 50 50 50 51 51 54 56 54 52 54 56 57 58 58 58 57 56 54 53 52 50 49 47 46 44 43 41 42 42 40